Starlink 11466

operational
NORAD ID: 62220 Int'l Des: 2024-231 Owner: SPXS Country: US Constellation: starlink
LEOCIRCULAR

About Starlink 11466

Description loading...

Live Position

Loading 3D Globe...

Upcoming Passes

Altitude History

Altitude vs Time

uPlot chart will show altitude changes over time

Two-Line Element Set

1 62220U 24231C 25307.39908781 .00213315 00000-0 17208-2 0 9991
2 62220 53.1574 4.0194 0001482 48.9964 311.1181 15.69708653 53578
Epoch: Nov 3, 2025 • Age: 25 hours

Current Status

Altitude 362.4 km
Velocity 7.70 km/s
Sub-Earth Point 45.77°N, 149.42°W
Launch Date Dec 5, 2024
Age 0.9 years
Type internet

Technical Details

Classification Payload
Mass 960.00 kg
Dry Mass 910.00 kg
Total Mass 960.00 kg
Length 0.30 m
Diameter 4.10 m
Span 29.00 m
Shape Box + pan
Manufacturer SPXS
Bus Type Starlink V2MD
Phase Status In Orbit
Owner/State SPXS/US

Large Constellations

Loading constellations...